Time,TemperatureF,DewpointF,PressureIn,WindDirection,WindDirectionDegrees,WindSpeedMPH,WindSpeedGustMPH,Humidity,HourlyPrecipIn,Conditions,Clouds,dailyrainin,SoftwareType,DateUTC
2013-04-20 00:03:00,44.0,39.0,30.09,WNW,289,0.0,2.0,82,0.00,,,0.78,,2013-04-20 04:03:00,
2013-04-20 00:12:00,44.0,39.0,30.09,WNW,289,0.0,2.0,82,0.00,,,0.78,,2013-04-20 04:12:00,
2013-04-20 00:23:00,44.0,39.0,30.09,WNW,284,1.0,4.0,83,0.00,,,0.78,,2013-04-20 04:23:00,
2013-04-20 00:33:00,44.0,39.0,30.09,WNW,284,1.0,4.0,83,0.00,,,0.78,,2013-04-20 04:33:00,
2013-04-20 00:43:00,44.0,39.0,30.09,WNW,284,1.0,4.0,83,0.00,,,0.78,,2013-04-20 04:43:00,
2013-04-20 00:53:00,43.0,38.0,30.10,WNW,298,0.0,3.0,82,0.00,,,0.78,,2013-04-20 04:53:00,
2013-04-20 01:02:00,43.0,38.0,30.10,WNW,298,0.0,3.0,82,0.00,,,0.78,,2013-04-20 05:02:00,
2013-04-20 01:12:00,43.0,38.0,30.10,WNW,298,0.0,3.0,82,0.00,,,0.78,,2013-04-20 05:12:00,
2013-04-20 01:22:00,43.0,38.0,30.10,NW,310,1.0,3.0,82,0.00,,,0.78,,2013-04-20 05:22:00,
2013-04-20 01:32:00,43.0,38.0,30.10,NW,310,1.0,3.0,82,0.00,,,0.78,,2013-04-20 05:32:00,
2013-04-20 01:43:00,43.0,38.0,30.10,NW,310,1.0,3.0,82,0.00,,,0.78,,2013-04-20 05:43:00,
2013-04-20 01:52:00,42.0,37.0,30.11,NW,311,0.0,3.0,82,0.00,,,0.78,,2013-04-20 05:52:00,
2013-04-20 02:02:00,42.0,37.0,30.11,NW,311,0.0,3.0,82,0.00,,,0.78,,2013-04-20 06:02:00,
2013-04-20 02:12:00,42.0,37.0,30.11,NW,311,0.0,3.0,82,0.00,,,0.78,,2013-04-20 06:12:00,
2013-04-20 02:21:00,42.0,37.0,30.11,NW,316,1.0,5.0,81,0.00,,,0.78,,2013-04-20 06:21:00,
2013-04-20 02:32:00,42.0,37.0,30.11,NW,316,1.0,5.0,81,0.00,,,0.78,,2013-04-20 06:32:00,
2013-04-20 02:42:00,42.0,37.0,30.11,NW,316,1.0,5.0,81,0.00,,,0.78,,2013-04-20 06:42:00,
2013-04-20 02:52:00,42.0,36.0,30.11,NW,325,1.0,4.0,78,0.00,,,0.78,,2013-04-20 06:52:00,
2013-04-20 03:01:00,42.0,36.0,30.11,NW,325,1.0,4.0,78,0.00,,,0.78,,2013-04-20 07:01:00,
2013-04-20 03:11:00,42.0,36.0,30.11,NW,325,1.0,4.0,78,0.00,,,0.78,,2013-04-20 07:11:00,
2013-04-20 03:21:00,41.0,34.0,30.11,NW,311,1.0,8.0,75,0.00,,,0.78,,2013-04-20 07:21:00,
2013-04-20 03:32:00,41.0,34.0,30.11,NW,311,1.0,8.0,75,0.00,,,0.78,,2013-04-20 07:32:00,
2013-04-20 03:42:00,40.0,32.0,30.11,NW,322,1.0,8.0,74,0.00,,,0.78,,2013-04-20 07:42:00,
2013-04-20 03:52:00,40.0,32.0,30.11,NW,322,1.0,8.0,74,0.00,,,0.78,,2013-04-20 07:52:00,
2013-04-20 04:02:00,40.0,32.0,30.11,NW,322,1.0,8.0,74,0.00,,,0.78,,2013-04-20 08:02:00,
2013-04-20 04:11:00,40.0,32.0,30.11,NW,322,1.0,8.0,74,0.00,,,0.78,,2013-04-20 08:11:00,
2013-04-20 04:21:00,40.0,32.0,30.13,NW,311,1.0,6.0,74,0.00,,,0.78,,2013-04-20 08:21:00,
2013-04-20 04:32:00,40.0,32.0,30.13,NW,311,1.0,6.0,74,0.00,,,0.78,,2013-04-20 08:32:00,
2013-04-20 04:42:00,40.0,32.0,30.13,NW,311,1.0,6.0,74,0.00,,,0.78,,2013-04-20 08:42:00,
2013-04-20 04:52:00,39.0,31.0,30.12,WNW,297,1.0,6.0,74,0.00,,,0.78,,2013-04-20 08:52:00,
2013-04-20 05:02:00,39.0,31.0,30.12,WNW,297,1.0,6.0,74,0.00,,,0.78,,2013-04-20 09:02:00,
2013-04-20 05:12:00,39.0,31.0,30.12,WNW,297,1.0,6.0,74,0.00,,,0.78,,2013-04-20 09:12:00,
2013-04-20 05:21:00,39.0,31.0,30.14,West,277,0.0,3.0,73,0.00,,,0.78,,2013-04-20 09:21:00,
2013-04-20 05:33:00,39.0,31.0,30.14,West,277,0.0,3.0,73,0.00,,,0.78,,2013-04-20 09:33:00,
2013-04-20 05:43:00,39.0,31.0,30.14,West,277,0.0,3.0,73,0.00,,,0.78,,2013-04-20 09:43:00,
2013-04-20 05:53:00,39.0,31.0,30.14,WNW,290,0.0,5.0,72,0.00,,,0.78,,2013-04-20 09:53:00,
2013-04-20 06:03:00,39.0,31.0,30.14,WNW,290,0.0,5.0,72,0.00,,,0.78,,2013-04-20 10:03:00,
2013-04-20 06:13:00,39.0,31.0,30.14,WNW,290,0.0,5.0,72,0.00,,,0.78,,2013-04-20 10:13:00,
2013-04-20 06:23:00,39.0,31.0,30.15,WNW,302,0.0,3.0,73,0.00,,,0.78,,2013-04-20 10:23:00,
2013-04-20 06:33:00,39.0,31.0,30.15,WNW,302,0.0,3.0,73,0.00,,,0.78,,2013-04-20 10:33:00,
2013-04-20 06:42:00,39.0,31.0,30.15,WNW,302,0.0,3.0,73,0.00,,,0.78,,2013-04-20 10:42:00,
2013-04-20 06:53:00,39.0,31.0,30.16,NW,304,0.0,1.0,73,0.00,,,0.78,,2013-04-20 10:53:00,
2013-04-20 07:02:00,39.0,31.0,30.16,NW,304,0.0,1.0,73,0.00,,,0.78,,2013-04-20 11:02:00,
2013-04-20 07:12:00,38.0,31.0,30.18,NW,304,0.0,2.0,76,0.00,,,0.78,,2013-04-20 11:12:00,
2013-04-20 07:23:00,38.0,31.0,30.18,NW,304,0.0,2.0,76,0.00,,,0.78,,2013-04-20 11:23:00,
2013-04-20 07:32:00,38.0,31.0,30.18,NW,304,0.0,2.0,76,0.00,,,0.78,,2013-04-20 11:32:00,
2013-04-20 07:42:00,38.0,31.0,30.18,NW,304,0.0,2.0,76,0.00,,,0.78,,2013-04-20 11:42:00,
2013-04-20 07:53:00,39.0,31.0,30.19,North,5,0.0,2.0,74,0.00,,,0.78,,2013-04-20 11:53:00,
2013-04-20 08:02:00,39.0,31.0,30.19,North,5,0.0,2.0,74,0.00,,,0.78,,2013-04-20 12:02:00,
2013-04-20 08:11:00,39.0,31.0,30.19,North,5,0.0,2.0,74,0.00,,,0.78,,2013-04-20 12:11:00,
2013-04-20 08:22:00,40.0,32.0,30.21,North,355,0.0,1.0,74,0.00,,,0.77,,2013-04-20 12:22:00,
2013-04-20 08:32:00,40.0,32.0,30.21,North,355,0.0,1.0,74,0.00,,,0.77,,2013-04-20 12:32:00,
2013-04-20 08:42:00,40.0,32.0,30.21,North,355,0.0,1.0,74,0.00,,,0.77,,2013-04-20 12:42:00,
2013-04-20 08:52:00,40.0,32.0,30.21,North,355,0.0,1.0,74,0.00,,,0.77,,2013-04-20 12:52:00,
2013-04-20 09:02:00,40.0,32.0,30.21,North,355,0.0,1.0,74,0.00,,,0.77,,2013-04-20 13:02:00,
2013-04-20 09:11:00,43.0,32.0,30.23,NW,324,0.0,3.0,65,0.00,,,0.77,,2013-04-20 13:11:00,
2013-04-20 09:22:00,43.0,32.0,30.23,NW,324,0.0,3.0,65,0.00,,,0.77,,2013-04-20 13:22:00,
2013-04-20 09:32:00,43.0,32.0,30.23,NW,324,0.0,3.0,65,0.00,,,0.77,,2013-04-20 13:32:00,
2013-04-20 09:42:00,43.0,32.0,30.23,NW,324,0.0,3.0,65,0.00,,,0.77,,2013-04-20 13:42:00,
2013-04-20 09:52:00,46.0,34.0,30.24,North,5,1.0,5.0,63,0.00,,,0.77,,2013-04-20 13:52:00,
2013-04-20 10:02:00,46.0,34.0,30.24,North,5,1.0,5.0,63,0.00,,,0.77,,2013-04-20 14:02:00,
2013-04-20 10:11:00,46.0,34.0,30.24,North,5,1.0,5.0,63,0.00,,,0.77,,2013-04-20 14:11:00,
2013-04-20 10:21:00,49.0,34.0,30.25,North,350,0.0,7.0,55,0.00,,,0.77,,2013-04-20 14:21:00,
2013-04-20 10:32:00,49.0,34.0,30.25,North,350,0.0,7.0,55,0.00,,,0.77,,2013-04-20 14:32:00,
2013-04-20 10:42:00,49.0,34.0,30.25,North,350,0.0,7.0,55,0.00,,,0.77,,2013-04-20 14:42:00,
2013-04-20 10:52:00,52.0,34.0,30.25,North,360,0.0,4.0,51,0.00,,,0.77,,2013-04-20 14:52:00,
2013-04-20 11:01:00,52.0,34.0,30.25,North,360,0.0,4.0,51,0.00,,,0.77,,2013-04-20 15:01:00,
2013-04-20 11:12:00,52.0,34.0,30.25,North,360,0.0,4.0,51,0.00,,,0.77,,2013-04-20 15:12:00,
2013-04-20 11:21:00,55.0,33.0,30.26,North,355,1.0,5.0,43,0.00,,,0.35,,2013-04-20 15:21:00,
2013-04-20 11:33:00,55.0,33.0,30.26,North,355,1.0,5.0,43,0.00,,,0.35,,2013-04-20 15:33:00,
2013-04-20 11:43:00,55.0,33.0,30.26,North,355,1.0,5.0,43,0.00,,,0.35,,2013-04-20 15:43:00,
2013-04-20 11:53:00,58.0,34.0,30.26,WNW,303,1.0,5.0,41,0.00,,,0.35,,2013-04-20 15:53:00,
2013-04-20 12:03:00,58.0,34.0,30.26,WNW,303,1.0,5.0,41,0.00,,,0.35,,2013-04-20 16:03:00,
2013-04-20 12:12:00,60.0,35.0,30.27,NNE,13,1.0,3.0,39,0.00,,,0.21,,2013-04-20 16:12:00,
2013-04-20 12:23:00,60.0,35.0,30.27,NNE,13,1.0,3.0,39,0.00,,,0.21,,2013-04-20 16:23:00,
2013-04-20 12:33:00,60.0,35.0,30.27,NNE,13,1.0,3.0,39,0.00,,,0.21,,2013-04-20 16:33:00,
2013-04-20 12:42:00,62.0,38.0,30.26,West,277,1.0,5.0,41,0.00,,,0.21,,2013-04-20 16:42:00,
2013-04-20 12:53:00,62.0,38.0,30.26,West,277,1.0,5.0,41,0.00,,,0.21,,2013-04-20 16:53:00,
2013-04-20 13:02:00,62.0,38.0,30.26,West,277,1.0,5.0,41,0.00,,,0.21,,2013-04-20 17:02:00,
2013-04-20 13:12:00,62.0,38.0,30.26,West,277,1.0,5.0,41,0.00,,,0.21,,2013-04-20 17:12:00,
2013-04-20 13:23:00,62.0,37.0,30.25,NW,312,1.0,3.0,39,0.00,,,0.04,,2013-04-20 17:23:00,
2013-04-20 13:33:00,62.0,37.0,30.25,NW,312,1.0,3.0,39,0.00,,,0.04,,2013-04-20 17:33:00,
2013-04-20 13:42:00,62.0,37.0,30.25,NW,312,1.0,3.0,39,0.00,,,0.04,,2013-04-20 17:42:00,
2013-04-20 13:52:00,62.0,36.0,30.23,WNW,294,0.0,3.0,38,0.00,,,0.04,,2013-04-20 17:52:00,
2013-04-20 14:02:00,62.0,36.0,30.23,WNW,294,0.0,3.0,38,0.00,,,0.04,,2013-04-20 18:02:00,
2013-04-20 14:13:00,62.0,36.0,30.23,WNW,294,0.0,3.0,38,0.00,,,0.04,,2013-04-20 18:13:00,
2013-04-20 14:22:00,62.0,36.0,30.23,WNW,294,0.0,3.0,38,0.00,,,0.04,,2013-04-20 18:22:00,
2013-04-20 14:32:00,62.0,36.0,30.23,WNW,294,0.0,3.0,38,0.00,,,0.04,,2013-04-20 18:32:00,
2013-04-20 14:53:00,65.0,32.0,30.23,NW,325,1.0,8.0,29,0.00,,,0.01,,2013-04-20 18:53:00,
2013-04-20 15:02:00,65.0,32.0,30.23,NW,325,1.0,8.0,29,0.00,,,0.01,,2013-04-20 19:02:00,
2013-04-20 15:11:00,65.0,34.0,30.23,West,277,0.0,4.0,31,0.00,,,0.01,,2013-04-20 19:11:00,
2013-04-20 15:21:00,65.0,34.0,30.23,West,277,0.0,4.0,31,0.00,,,0.01,,2013-04-20 19:21:00,
2013-04-20 15:32:00,65.0,34.0,30.23,West,277,0.0,4.0,31,0.00,,,0.01,,2013-04-20 19:32:00,
2013-04-20 15:42:00,63.0,32.0,30.22,WSW,253,1.0,6.0,31,0.00,,,0.01,,2013-04-20 19:42:00,
2013-04-20 15:52:00,63.0,32.0,30.22,WSW,253,1.0,6.0,31,0.00,,,0.01,,2013-04-20 19:52:00,
2013-04-20 16:02:00,63.0,32.0,30.22,WSW,253,1.0,6.0,31,0.00,,,0.01,,2013-04-20 20:02:00,
2013-04-20 16:12:00,62.0,33.0,30.22,NW,316,1.0,6.0,33,0.00,,,0.01,,2013-04-20 20:12:00,
2013-04-20 16:22:00,62.0,33.0,30.22,NW,316,1.0,6.0,33,0.00,,,0.01,,2013-04-20 20:22:00,
2013-04-20 16:32:00,62.0,33.0,30.22,NW,316,1.0,6.0,33,0.00,,,0.01,,2013-04-20 20:32:00,
2013-04-20 16:42:00,62.0,33.0,30.22,NW,316,1.0,6.0,33,0.00,,,0.01,,2013-04-20 20:42:00,
2013-04-20 16:52:00,62.0,33.0,30.22,NW,323,2.0,5.0,33,0.00,,,0.01,,2013-04-20 20:52:00,
2013-04-20 17:01:00,62.0,33.0,30.22,NW,323,2.0,5.0,33,0.00,,,0.01,,2013-04-20 21:01:00,
2013-04-20 17:12:00,61.0,34.0,30.21,NW,306,1.0,4.0,36,0.00,,,0.01,,2013-04-20 21:12:00,
2013-04-20 17:22:00,61.0,34.0,30.21,NW,306,1.0,4.0,36,0.00,,,0.01,,2013-04-20 21:22:00,
2013-04-20 17:33:00,61.0,34.0,30.21,NW,306,1.0,4.0,36,0.00,,,0.01,,2013-04-20 21:33:00,
2013-04-20 17:43:00,61.0,34.0,30.21,NW,306,1.0,4.0,36,0.00,,,0.01,,2013-04-20 21:43:00,
2013-04-20 17:53:00,61.0,34.0,30.21,WSW,243,0.0,8.0,36,0.00,,,0.01,,2013-04-20 21:53:00,
2013-04-20 18:03:00,61.0,34.0,30.21,WSW,243,0.0,8.0,36,0.00,,,0.01,,2013-04-20 22:03:00,
2013-04-20 18:13:00,61.0,34.0,30.21,WSW,243,0.0,8.0,36,0.00,,,0.01,,2013-04-20 22:13:00,
2013-04-20 18:23:00,61.0,34.0,30.21,West,281,1.0,4.0,36,0.00,,,0.00,,2013-04-20 22:23:00,
2013-04-20 18:32:00,61.0,34.0,30.21,West,281,1.0,4.0,36,0.00,,,0.00,,2013-04-20 22:32:00,
2013-04-20 18:42:00,61.0,34.0,30.21,West,281,1.0,4.0,36,0.00,,,0.00,,2013-04-20 22:42:00,
2013-04-20 18:53:00,60.0,33.0,30.21,West,271,1.0,7.0,36,0.00,,,0.00,,2013-04-20 22:53:00,
2013-04-20 19:02:00,60.0,33.0,30.21,West,271,1.0,7.0,36,0.00,,,0.00,,2013-04-20 23:02:00,
2013-04-20 19:12:00,60.0,33.0,30.21,West,271,1.0,7.0,36,0.00,,,0.00,,2013-04-20 23:12:00,
2013-04-20 19:22:00,60.0,33.0,30.21,West,271,1.0,7.0,36,0.00,,,0.00,,2013-04-20 23:22:00,
2013-04-20 19:32:00,60.0,33.0,30.21,West,271,1.0,7.0,36,0.00,,,0.00,,2013-04-20 23:32:00,
2013-04-20 19:53:00,59.0,35.0,30.22,WNW,292,0.0,3.0,40,0.00,,,0.00,,2013-04-20 23:53:00,
2013-04-20 20:01:00,59.0,35.0,30.22,WNW,292,0.0,3.0,40,0.00,,,0.00,,2013-04-21 00:01:00,
2013-04-20 20:12:00,59.0,35.0,30.22,WNW,292,0.0,3.0,40,0.00,,,0.00,,2013-04-21 00:12:00,
2013-04-20 20:22:00,57.0,34.0,30.22,WNW,294,0.0,1.0,42,0.00,,,0.00,,2013-04-21 00:22:00,
2013-04-20 20:32:00,57.0,34.0,30.22,WNW,294,0.0,1.0,42,0.00,,,0.00,,2013-04-21 00:32:00,
2013-04-20 20:42:00,57.0,34.0,30.22,WNW,294,0.0,1.0,42,0.00,,,0.00,,2013-04-21 00:42:00,
2013-04-20 20:52:00,55.0,33.0,30.23,WNW,294,0.0,1.0,44,0.00,,,0.00,,2013-04-21 00:52:00,
2013-04-20 21:01:00,55.0,33.0,30.23,WNW,294,0.0,1.0,44,0.00,,,0.00,,2013-04-21 01:01:00,
2013-04-20 21:12:00,55.0,33.0,30.23,WNW,294,0.0,1.0,44,0.00,,,0.00,,2013-04-21 01:12:00,
2013-04-20 21:21:00,54.0,35.0,30.25,WNW,294,0.0,0.0,48,0.00,,,0.00,,2013-04-21 01:21:00,
2013-04-20 21:32:00,54.0,35.0,30.25,WNW,294,0.0,0.0,48,0.00,,,0.00,,2013-04-21 01:32:00,
2013-04-20 21:42:00,54.0,35.0,30.25,WNW,294,0.0,0.0,48,0.00,,,0.00,,2013-04-21 01:42:00,
2013-04-20 21:52:00,53.0,34.0,30.26,WNW,294,0.0,1.0,49,0.00,,,0.00,,2013-04-21 01:52:00,
2013-04-20 22:02:00,53.0,34.0,30.26,WNW,294,0.0,1.0,49,0.00,,,0.00,,2013-04-21 02:02:00,
2013-04-20 22:11:00,53.0,34.0,30.26,WNW,294,0.0,1.0,49,0.00,,,0.00,,2013-04-21 02:11:00,
2013-04-20 22:22:00,52.0,33.0,30.27,WNW,294,0.0,2.0,48,0.00,,,0.00,,2013-04-21 02:22:00,
2013-04-20 22:32:00,52.0,33.0,30.27,WNW,294,0.0,2.0,48,0.00,,,0.00,,2013-04-21 02:32:00,
2013-04-20 22:42:00,52.0,33.0,30.27,WNW,294,0.0,2.0,48,0.00,,,0.00,,2013-04-21 02:42:00,
2013-04-20 22:52:00,52.0,33.0,30.27,WNW,294,0.0,2.0,48,0.00,,,0.00,,2013-04-21 02:52:00,
2013-04-20 23:01:00,52.0,33.0,30.27,WNW,294,0.0,2.0,48,0.00,,,0.00,,2013-04-21 03:01:00,
2013-04-20 23:22:00,51.0,35.0,30.28,WNW,294,0.0,0.0,54,0.00,,,0.00,,2013-04-21 03:22:00,
2013-04-20 23:33:00,51.0,35.0,30.28,WNW,294,0.0,0.0,54,0.00,,,0.00,,2013-04-21 03:33:00,
2013-04-20 23:42:00,51.0,35.0,30.28,WNW,294,0.0,0.0,54,0.00,,,0.00,,2013-04-21 03:42:00,
2013-04-20 23:53:00,50.0,34.0,30.29,WNW,294,0.0,0.0,55,0.00,,,0.00,,2013-04-21 03:53:00,